,,,PA_Meas_PMT16A,,PR_Meas_QMR101_102,,RH_Meas_QMH101,,SR_Meas_QMS101,,TA_Meas_QMH101,,GenWind,,GenWind,
date,time,status,PA,status,PR,status,RH,status,SR,status,TA,status,DirAvg,status,SpdAvg,
2012-07-19, 07:26:05,VALID,1005.5,VALID,0,VALID,87.8389,VALID,123.731,VALID,25.9427,VALID,94,VALID,0.998047,
2012-07-19, 07:27:05,VALID,1005.55,VALID,0,VALID,87.8847,VALID,125.687,VALID,25.9817,VALID,94,VALID,0.679297,
2012-07-19, 07:28:05,VALID,1005.58,VALID,0,VALID,87.9305,VALID,127.48,VALID,25.9797,VALID,93,VALID,0.703516,
2012-07-19, 07:29:05,VALID,1005.61,VALID,0,VALID,87.6558,VALID,129.273,VALID,25.9797,VALID,90,VALID,0.630078,
2012-07-19, 07:30:05,VALID,1005.61,VALID,0,VALID,87.6253,VALID,130.659,VALID,26.0206,VALID,77,VALID,0.598828,
2012-07-19, 07:31:05,VALID,1005.61,VALID,0,VALID,86.481,VALID,131.963,VALID,26.0401,VALID,75,VALID,0.734766,
2012-07-19, 07:32:05,VALID,1005.63,VALID,0,VALID,86.5649,VALID,133.104,VALID,26.081,VALID,74,VALID,0.829297,
2012-07-19, 07:33:05,VALID,1005.64,VALID,0,VALID,86.2369,VALID,134.164,VALID,26.0985,VALID,74,VALID,0.743359,
2012-07-19, 07:34:05,VALID,1005.65,VALID,0,VALID,86.4657,VALID,134.816,VALID,26.1375,VALID,80,VALID,0.205078,
2012-07-19, 07:35:05,VALID,1005.65,VALID,0,VALID,86.008,VALID,135.549,VALID,26.157,VALID,85,VALID,0.503125,
2012-07-19, 07:36:05,VALID,1005.66,VALID,0,VALID,86.2979,VALID,136.609,VALID,26.1959,VALID,83,VALID,0.432422,
2012-07-19, 07:37:05,VALID,1005.71,VALID,0,VALID,85.802,VALID,137.343,VALID,26.2154,VALID,72,VALID,0.808984,
2012-07-19, 07:38:05,VALID,1005.7,VALID,0,VALID,85.596,VALID,137.261,VALID,26.2544,VALID,72,VALID,0.315625,
2012-07-19, 07:39:05,VALID,1005.72,VALID,0,VALID,85.8096,VALID,135.794,VALID,26.2933,VALID,81,VALID,0.452344,
2012-07-19, 07:40:05,VALID,1005.74,VALID,0,VALID,86.5268,VALID,135.223,VALID,26.3518,VALID,81,VALID,0,
2012-07-19, 07:41:05,VALID,1005.77,VALID,0,VALID,85.8707,VALID,135.549,VALID,26.3693,VALID,81,VALID,0.00585938,
2012-07-19, 07:42:05,VALID,1005.79,VALID,0,VALID,85.4511,VALID,135.957,VALID,26.3867,VALID,85,VALID,0.519531,
2012-07-19, 07:43:04,VALID,1005.83,VALID,0,VALID,84.7492,VALID,136.609,VALID,26.4082,VALID,84,VALID,0.377344,
2012-07-19, 07:44:04,VALID,1005.81,VALID,0,VALID,85.2222,VALID,137.506,VALID,26.4472,VALID,84,VALID,0.565234,
2012-07-19, 07:45:04,VALID,1005.83,VALID,0,VALID,84.8179,VALID,138.484,VALID,26.4472,VALID,83,VALID,0.703125,
2012-07-19, 07:46:04,VALID,1005.83,VALID,0,VALID,85.0391,VALID,139.869,VALID,26.4861,VALID,80,VALID,0.528125,
2012-07-19, 07:47:04,VALID,1005.83,VALID,0,VALID,85.5655,VALID,141.744,VALID,26.5056,VALID,80,VALID,0.0796875,
2012-07-19, 07:48:04,VALID,1005.88,VALID,0,VALID,85.7486,VALID,144.189,VALID,26.5446,VALID,80,VALID,0,
2012-07-19, 07:49:04,VALID,1005.89,VALID,0,VALID,86.0233,VALID,146.39,VALID,26.6245,VALID,80,VALID,0,
2012-07-19, 07:50:04,VALID,1005.85,VALID,0,VALID,85.0773,VALID,148.428,VALID,26.603,VALID,45,VALID,0.448828,
2012-07-19, 07:51:04,VALID,1005.85,VALID,0,VALID,84.8103,VALID,150.873,VALID,26.6225,VALID,32,VALID,0.732031,
2012-07-19, 07:52:04,VALID,1005.84,VALID,0,VALID,85.2527,VALID,152.666,VALID,26.642,VALID,30,VALID,0.242188,
2012-07-19, 07:53:04,VALID,1005.82,VALID,0,VALID,83.9482,VALID,154.541,VALID,26.6225,VALID,24,VALID,0.725,
2012-07-19, 07:54:04,VALID,1005.82,VALID,0,VALID,85.0162,VALID,155.927,VALID,26.6614,VALID,28,VALID,0.421484,
2012-07-19, 07:55:04,VALID,1005.81,VALID,0,VALID,84.4822,VALID,156.905,VALID,26.7004,VALID,28,VALID,0.544531,
2012-07-19, 07:56:04,VALID,1005.84,VALID,0,VALID,84.5585,VALID,158.535,VALID,26.7004,VALID,79,VALID,0.499219,
2012-07-19, 07:57:04,VALID,1005.82,VALID,0,VALID,82.9641,VALID,159.92,VALID,26.7199,VALID,19,VALID,1.13945,
2012-07-19, 07:58:04,VALID,1005.84,VALID,0,VALID,84.3373,VALID,161.143,VALID,26.7394,VALID,23,VALID,0.501953,
2012-07-19, 07:59:04,VALID,1005.84,VALID,0,VALID,84.467,VALID,162.529,VALID,26.7804,VALID,27,VALID,0,
2012-07-19, 08:00:04,VALID,1005.83,VALID,0,VALID,83.9024,VALID,164.077,VALID,26.7783,VALID,32,VALID,0,
2012-07-19, 08:01:04,VALID,1005.84,VALID,0,VALID,83.7804,VALID,165.626,VALID,26.8193,VALID,66,VALID,0.642187,
2012-07-19, 08:02:04,VALID,1005.8,VALID,0,VALID,83.6354,VALID,167.093,VALID,26.8388,VALID,32,VALID,0.537109,
2012-07-19, 08:03:04,VALID,1005.79,VALID,0,VALID,83.8261,VALID,168.479,VALID,26.8388,VALID,29,VALID,0.394141,
2012-07-19, 08:04:04,VALID,1005.78,VALID,0,VALID,83.0938,VALID,170.517,VALID,26.8583,VALID,45,VALID,0.479688,
2012-07-19, 08:05:04,VALID,1005.74,VALID,0,VALID,83.4752,VALID,172.065,VALID,26.8973,VALID,46,VALID,0.0078125,
2012-07-19, 08:06:04,VALID,1005.71,VALID,0,VALID,82.7123,VALID,172.88,VALID,26.9167,VALID,60,VALID,0.35625,
2012-07-19, 08:07:04,VALID,1005.73,VALID,0,VALID,82.8954,VALID,172.88,VALID,26.9557,VALID,60,VALID,0.000390625,
2012-07-19, 08:08:04,VALID,1005.71,VALID,0,VALID,81.6748,VALID,172.554,VALID,26.9537,VALID,70,VALID,0.829687,
2012-07-19, 08:09:04,VALID,1005.69,VALID,0,VALID,82.7581,VALID,172.799,VALID,26.9752,VALID,69,VALID,0.207031,
2012-07-19, 08:10:04,VALID,1005.67,VALID,0,VALID,82.1402,VALID,173.125,VALID,27.0316,VALID,69,VALID,0,
2012-07-19, 08:11:04,VALID,1005.7,VALID,0,VALID,83.2311,VALID,173.043,VALID,27.0726,VALID,59,VALID,0,
2012-07-19, 08:12:04,VALID,1005.66,VALID,0,VALID,81.8579,VALID,172.473,VALID,27.09,VALID,27,VALID,0.090625,
2012-07-19, 08:13:04,VALID,1005.68,VALID,0,VALID,83.0175,VALID,171.576,VALID,27.1311,VALID,11,VALID,0.301953,
2012-07-19, 08:14:04,VALID,1005.71,VALID,0,VALID,82.2775,VALID,171.006,VALID,27.1311,VALID,70,VALID,0.6875,
2012-07-19, 08:15:04,VALID,1005.69,VALID,0,VALID,82.3995,VALID,170.191,VALID,27.1506,VALID,70,VALID,0.222656,
2012-07-19, 08:16:04,VALID,1005.66,VALID,0,VALID,83.254,VALID,169.62,VALID,27.2285,VALID,70,VALID,0.05625,
2012-07-19, 08:17:04,VALID,1005.65,VALID,0,VALID,82.3385,VALID,169.131,VALID,27.2459,VALID,52,VALID,0.521484,
2012-07-19, 08:18:04,VALID,1005.67,VALID,0,VALID,81.1179,VALID,168.642,VALID,27.2695,VALID,48,VALID,0.466016,
2012-07-19, 08:19:04,VALID,1005.66,VALID,0,VALID,80.4465,VALID,168.153,VALID,27.209,VALID,25,VALID,0.760938,
2012-07-19, 08:20:04,VALID,1005.65,VALID,0,VALID,80.9958,VALID,167.664,VALID,27.209,VALID,2,VALID,0.227344,
2012-07-19, 08:21:04,VALID,1005.67,VALID,0,VALID,80.1032,VALID,167.256,VALID,27.248,VALID,345,VALID,0.623047,
2012-07-19, 08:22:04,VALID,1005.71,VALID,0,VALID,80.9501,VALID,166.849,VALID,27.248,VALID,345,VALID,0.0121094,
2012-07-19, 08:23:04,VALID,1005.72,VALID,0,VALID,80.3474,VALID,166.115,VALID,27.2675,VALID,349,VALID,0.0347656,
2012-07-19, 08:24:04,VALID,1005.73,VALID,0,VALID,80.4084,VALID,165.463,VALID,27.2675,VALID,42,VALID,0.275781,
2012-07-19, 08:25:04,VALID,1005.76,VALID,0,VALID,80.0804,VALID,164.73,VALID,27.2675,VALID,31,VALID,0.689844,
2012-07-19, 08:26:04,VALID,1005.76,VALID,0,VALID,81.5375,VALID,163.833,VALID,27.2264,VALID,31,VALID,0.559375,
2012-07-19, 08:27:04,VALID,1005.76,VALID,0,VALID,79.6455,VALID,162.855,VALID,27.209,VALID,27,VALID,0.966406,
2012-07-19, 08:28:04,VALID,1005.79,VALID,0,VALID,80.1566,VALID,161.795,VALID,27.1721,VALID,8,VALID,1.07227,
2012-07-19, 08:29:04,VALID,1005.8,VALID,0,VALID,81.4688,VALID,160.736,VALID,27.1506,VALID,358,VALID,0.675,
2012-07-19, 08:30:04,VALID,1005.79,VALID,0,VALID,81.3544,VALID,159.431,VALID,27.1311,VALID,358,VALID,0.757422,
2012-07-19, 08:31:04,VALID,1005.8,VALID,0,VALID,82.7352,VALID,158.209,VALID,27.17,VALID,359,VALID,0.0589844,
2012-07-19, 08:32:04,VALID,1005.78,VALID,0,VALID,81.6977,VALID,156.905,VALID,27.1895,VALID,360,VALID,0,
2012-07-19, 08:33:04,VALID,1005.78,VALID,0,VALID,82.2317,VALID,155.438,VALID,27.209,VALID,69,VALID,0.461328,
2012-07-19, 08:34:04,VALID,1005.79,VALID,0,VALID,82.3538,VALID,154.133,VALID,27.209,VALID,69,VALID,0.402734,
2012-07-19, 08:35:04,VALID,1005.77,VALID,0,VALID,80.3474,VALID,152.992,VALID,27.2111,VALID,69,VALID,0.431641,
2012-07-19, 08:36:04,VALID,1005.78,VALID,0,VALID,80.8127,VALID,151.688,VALID,27.1895,VALID,55,VALID,0.40625,
2012-07-19, 08:37:04,VALID,1005.76,VALID,0,VALID,79.5311,VALID,150.384,VALID,27.1506,VALID,80,VALID,0.835938,
2012-07-19, 08:38:04,VALID,1005.76,VALID,0,VALID,80.2329,VALID,149.08,VALID,27.1506,VALID,81,VALID,0.111328,
2012-07-19, 08:39:04,VALID,1005.77,VALID,0,VALID,80.4618,VALID,147.613,VALID,27.17,VALID,54,VALID,0.411719,
2012-07-19, 08:40:04,VALID,1005.77,VALID,0,VALID,80.8356,VALID,146.227,VALID,27.17,VALID,35,VALID,0.353125,
2012-07-19, 08:41:04,VALID,1005.8,VALID,0,VALID,81.69,VALID,144.841,VALID,27.2306,VALID,35,VALID,0,
2012-07-19, 08:42:04,VALID,1005.78,VALID,0,VALID,82.8344,VALID,143.782,VALID,27.25,VALID,35,VALID,0,
2012-07-19, 08:43:04,VALID,1005.8,VALID,0,VALID,81.156,VALID,143.374,VALID,27.17,VALID,98,VALID,0.788281,
2012-07-19, 08:44:04,VALID,1005.79,VALID,0,VALID,81.5375,VALID,143.211,VALID,27.1916,VALID,69,VALID,0.673828,
2012-07-19, 08:45:04,VALID,1005.79,VALID,0,VALID,80.4999,VALID,143.7,VALID,27.1506,VALID,97,VALID,0.637109,
2012-07-19, 08:46:04,VALID,1005.76,VALID,0,VALID,82.1478,VALID,144.352,VALID,27.1721,VALID,85,VALID,0.0695312,
2012-07-19, 08:47:04,VALID,1005.75,VALID,0,VALID,81.1865,VALID,145.167,VALID,27.2111,VALID,85,VALID,0,
2012-07-19, 08:48:04,VALID,1005.73,VALID,0,VALID,82.1859,VALID,145.982,VALID,27.248,VALID,91,VALID,0.209375,
2012-07-19, 08:49:04,VALID,1005.7,VALID,0,VALID,81.7969,VALID,146.553,VALID,27.2285,VALID,36,VALID,0.694141,
2012-07-19, 08:50:04,VALID,1005.71,VALID,0,VALID,81.6138,VALID,147.124,VALID,27.2675,VALID,343,VALID,0.185547,
2012-07-19, 08:51:04,VALID,1005.72,VALID,0,VALID,81.6061,VALID,147.613,VALID,27.2869,VALID,343,VALID,0.223438,
2012-07-19, 08:52:04,VALID,1005.73,VALID,0,VALID,81.0492,VALID,148.265,VALID,27.3064,VALID,343,VALID,0,
2012-07-19, 08:53:04,VALID,1005.71,VALID,0,VALID,79.554,VALID,149.243,VALID,27.3259,VALID,343,VALID,0.461328,
2012-07-19, 08:54:04,VALID,1005.69,VALID,0,VALID,79.7981,VALID,150.71,VALID,27.3064,VALID,355,VALID,0.786719,
2012-07-19, 08:55:04,VALID,1005.68,VALID,0,VALID,80.5381,VALID,152.34,VALID,27.2869,VALID,8,VALID,0.273438,
2012-07-19, 08:56:04,VALID,1005.66,VALID,0,VALID,79.7981,VALID,154.378,VALID,27.3085,VALID,10,VALID,0.759766,
2012-07-19, 08:57:04,VALID,1005.66,VALID,0,VALID,79.8591,VALID,156.497,VALID,27.248,VALID,360,VALID,0.592969,
2012-07-19, 08:58:04,VALID,1005.66,VALID,0,VALID,79.5921,VALID,158.779,VALID,27.248,VALID,358,VALID,0.736328,
2012-07-19, 08:59:04,VALID,1005.65,VALID,0,VALID,80.7746,VALID,161.306,VALID,27.2675,VALID,358,VALID,0.465234,
2012-07-19, 09:00:04,VALID,1005.68,VALID,0,VALID,80.5533,VALID,163.996,VALID,27.3085,VALID,358,VALID,0.328516,
2012-07-19, 09:01:04,VALID,1005.65,VALID,0,VALID,80.4389,VALID,166.767,VALID,27.3064,VALID,358,VALID,0.0925781,
2012-07-19, 09:02:04,VALID,1005.69,VALID,0,VALID,81.1484,VALID,169.702,VALID,27.3649,VALID,358,VALID,0,
2012-07-19, 09:03:04,VALID,1005.71,VALID,0,VALID,80.7593,VALID,172.554,VALID,27.4059,VALID,359,VALID,0.647656,
2012-07-19, 09:04:04,VALID,1005.69,VALID,0,VALID,80.4694,VALID,175.57,VALID,27.4039,VALID,5,VALID,0,
2012-07-19, 09:05:04,VALID,1005.7,VALID,0,VALID,80.4389,VALID,178.749,VALID,27.4039,VALID,5,VALID,0,
2012-07-19, 09:06:04,VALID,1005.7,VALID,0,VALID,80.8127,VALID,182.009,VALID,27.4254,VALID,5,VALID,0,
2012-07-19, 09:07:04,VALID,1005.72,VALID,0,VALID,80.2329,VALID,185.596,VALID,27.4233,VALID,5,VALID,0,
2012-07-19, 09:08:04,VALID,1005.73,VALID,0,VALID,80.1414,VALID,189.427,VALID,27.4233,VALID,5,VALID,0,
2012-07-19, 09:09:04,VALID,1005.73,VALID,0,VALID,79.2793,VALID,193.502,VALID,27.4428,VALID,5,VALID,0,
2012-07-19, 09:10:04,VALID,1005.72,VALID,0,VALID,80.3016,VALID,197.333,VALID,27.4428,VALID,5,VALID,0,
2012-07-19, 09:11:04,VALID,1005.74,VALID,0,VALID,81.1713,VALID,201.164,VALID,27.5424,VALID,5,VALID,0,
2012-07-19, 09:12:04,VALID,1005.72,VALID,0,VALID,82.1478,VALID,204.75,VALID,27.5987,VALID,5,VALID,0,
2012-07-19, 09:13:04,VALID,1005.69,VALID,0,VALID,79.081,VALID,207.848,VALID,27.6767,VALID,5,VALID,0,
2012-07-19, 09:14:04,VALID,1005.7,VALID,0,VALID,78.9208,VALID,210.701,VALID,27.7762,VALID,5,VALID,0,
2012-07-19, 09:15:04,VALID,1005.68,VALID,0,VALID,79.8057,VALID,213.39,VALID,27.8131,VALID,1,VALID,0.0015625,
2012-07-19, 09:16:04,VALID,1005.68,VALID,0,VALID,79.5158,VALID,215.591,VALID,27.8737,VALID,360,VALID,0.548828,
2012-07-19, 09:17:04,VALID,1005.64,VALID,0,VALID,79.1725,VALID,217.14,VALID,27.8932,VALID,21,VALID,0.433203,
2012-07-19, 09:18:04,VALID,1005.63,VALID,0,VALID,78.6004,VALID,218.525,VALID,27.8932,VALID,6,VALID,0.744141,
2012-07-19, 09:19:04,VALID,1005.61,VALID,0,VALID,77.3645,VALID,218.444,VALID,27.8347,VALID,345,VALID,0.706641,
2012-07-19, 09:20:04,VALID,1005.59,VALID,0,VALID,77.9595,VALID,217.873,VALID,27.7741,VALID,360,VALID,0.626562,
2012-07-19, 09:21:04,VALID,1005.54,VALID,0,VALID,79.2946,VALID,216.732,VALID,27.7978,VALID,355,VALID,0.737109,
2012-07-19, 09:22:04,VALID,1005.57,VALID,0,VALID,78.5851,VALID,215.265,VALID,27.7567,VALID,352,VALID,0.813672,
2012-07-19, 09:23:04,VALID,1005.52,VALID,0,VALID,78.3639,VALID,213.39,VALID,27.7762,VALID,359,VALID,0.536719,
2012-07-19, 09:24:04,VALID,1005.53,VALID,0,VALID,79.4243,VALID,211.353,VALID,27.7741,VALID,106,VALID,0.243359,
2012-07-19, 09:25:04,VALID,1005.52,VALID,0,VALID,77.8756,VALID,209.07,VALID,27.8737,VALID,35,VALID,0.394141,
2012-07-19, 09:26:04,VALID,1005.49,VALID,0,VALID,78.2647,VALID,206.951,VALID,27.8932,VALID,332,VALID,0.653906,
2012-07-19, 09:27:04,VALID,1005.51,VALID,0,VALID,77.8375,VALID,204.424,VALID,27.9127,VALID,343,VALID,0.300781,
2012-07-19, 09:28:04,VALID,1005.52,VALID,0,VALID,78.0968,VALID,202.305,VALID,27.9321,VALID,341,VALID,0.825391,
2012-07-19, 09:29:04,VALID,1005.51,VALID,0,VALID,78.2494,VALID,200.186,VALID,27.9516,VALID,343,VALID,0.271484,
2012-07-19, 09:30:04,VALID,1005.53,VALID,0,VALID,77.9061,VALID,198.23,VALID,27.93,VALID,275,VALID,0.0664063,
2012-07-19, 09:31:04,VALID,1005.53,VALID,0,VALID,77.2272,VALID,196.355,VALID,27.9495,VALID,353,VALID,0.840234,
2012-07-19, 09:32:04,VALID,1005.54,VALID,0,VALID,77.6849,VALID,194.806,VALID,27.9321,VALID,352,VALID,0.552344,
2012-07-19, 09:33:04,VALID,1005.55,VALID,0,VALID,77.5933,VALID,193.747,VALID,27.9127,VALID,349,VALID,1.02305,
2012-07-19, 09:34:04,VALID,1005.54,VALID,0,VALID,78.3257,VALID,193.176,VALID,27.8737,VALID,355,VALID,0.832812,
2012-07-19, 09:35:04,VALID,1005.52,VALID,0,VALID,78.3257,VALID,193.176,VALID,27.8542,VALID,240,VALID,0,
2012-07-19, 09:36:04,VALID,1005.55,VALID,0,VALID,78.0282,VALID,193.665,VALID,27.8932,VALID,328,VALID,0.00117188,
2012-07-19, 09:37:04,VALID,1005.53,VALID,0,VALID,77.2195,VALID,194.725,VALID,27.9127,VALID,347,VALID,0.828516,
2012-07-19, 09:38:04,VALID,1005.5,VALID,0,VALID,78.0282,VALID,196.11,VALID,27.8737,VALID,320,VALID,0.301953,
2012-07-19, 09:39:04,VALID,1005.5,VALID,0,VALID,77.5857,VALID,197.496,VALID,27.8737,VALID,348,VALID,0.761719,
2012-07-19, 09:40:04,VALID,1005.51,VALID,0,VALID,78.6461,VALID,198.963,VALID,27.8347,VALID,297,VALID,0.525391,
2012-07-19, 09:41:04,VALID,1005.48,VALID,0,VALID,78.3791,VALID,200.186,VALID,27.8521,VALID,259,VALID,0,
2012-07-19, 09:42:04,VALID,1005.5,VALID,0,VALID,78.1045,VALID,201.082,VALID,27.8911,VALID,336,VALID,0,
2012-07-19, 09:43:04,VALID,1005.47,VALID,0,VALID,78.2418,VALID,201.735,VALID,27.8716,VALID,358,VALID,0,
2012-07-19, 09:44:04,VALID,1005.51,VALID,0,VALID,78.7453,VALID,202.55,VALID,27.8911,VALID,360,VALID,0,
2012-07-19, 09:45:04,VALID,1005.51,VALID,0,VALID,78.2037,VALID,203.365,VALID,27.8932,VALID,10,VALID,0,
2012-07-19, 09:46:04,VALID,1005.52,VALID,0,VALID,78.3257,VALID,204.343,VALID,27.8326,VALID,10,VALID,0,
2012-07-19, 09:47:04,VALID,1005.57,VALID,0,VALID,78.2952,VALID,204.913,VALID,27.8326,VALID,14,VALID,0.0476562,
2012-07-19, 09:48:04,VALID,1005.57,VALID,0,VALID,77.5933,VALID,204.995,VALID,27.7936,VALID,23,VALID,0.340625,
2012-07-19, 09:49:04,VALID,1005.6,VALID,0,VALID,78.669,VALID,204.587,VALID,27.8347,VALID,23,VALID,0.0601562,
2012-07-19, 09:50:04,VALID,1005.62,VALID,0,VALID,79.0962,VALID,203.935,VALID,27.8716,VALID,23,VALID,0,
2012-07-19, 09:51:04,VALID,1005.61,VALID,0,VALID,79.1191,VALID,202.957,VALID,27.9711,VALID,23,VALID,0,
2012-07-19, 09:52:04,VALID,1005.6,VALID,0,VALID,78.8369,VALID,201.735,VALID,28.0059,VALID,23,VALID,0,
2012-07-19, 09:53:04,VALID,1005.61,VALID,0,VALID,76.7771,VALID,200.023,VALID,28.0275,VALID,23,VALID,0,
2012-07-19, 09:54:04,VALID,1005.57,VALID,0,VALID,77.5705,VALID,197.985,VALID,28.0275,VALID,23,VALID,0,
2012-07-19, 09:55:04,VALID,1005.57,VALID,0,VALID,78.1197,VALID,195.621,VALID,28.0859,VALID,23,VALID,0,
2012-07-19, 09:56:04,VALID,1005.55,VALID,0,VALID,77.6849,VALID,193.176,VALID,28.1249,VALID,301,VALID,0.676953,
2012-07-19, 09:57:04,VALID,1005.58,VALID,0,VALID,78.0892,VALID,190.16,VALID,28.1834,VALID,296,VALID,0,
2012-07-19, 09:58:04,VALID,1005.56,VALID,0,VALID,76.4719,VALID,186.737,VALID,28.2029,VALID,287,VALID,0,
2012-07-19, 09:59:04,VALID,1005.56,VALID,0,VALID,75.8006,VALID,183.314,VALID,28.1834,VALID,270,VALID,0.277344,
2012-07-19, 10:00:04,VALID,1005.58,VALID,0,VALID,76.182,VALID,179.972,VALID,28.1271,VALID,248,VALID,0.299609,
2012-07-19, 10:01:04,VALID,1005.58,VALID,0,VALID,76.7923,VALID,176.956,VALID,28.047,VALID,241,VALID,0.505078,
2012-07-19, 10:02:04,VALID,1005.59,VALID,0,VALID,77.7612,VALID,174.266,VALID,28.0275,VALID,240,VALID,0,
2012-07-19, 10:03:04,VALID,1005.6,VALID,0,VALID,77.8222,VALID,171.984,VALID,28.047,VALID,240,VALID,0.275781,
2012-07-19, 10:04:04,VALID,1005.6,VALID,0,VALID,76.9296,VALID,170.109,VALID,28.0859,VALID,283,VALID,0.793359,
2012-07-19, 10:05:04,VALID,1005.61,VALID,0,VALID,77.2424,VALID,168.56,VALID,28.047,VALID,299,VALID,0.50625,
2012-07-19, 10:06:04,VALID,1005.64,VALID,0,VALID,77.5476,VALID,167.093,VALID,28.047,VALID,312,VALID,0.297656,
2012-07-19, 10:07:04,VALID,1005.63,VALID,0,VALID,76.6474,VALID,165.871,VALID,28.047,VALID,289,VALID,0.773438,
2012-07-19, 10:08:04,VALID,1005.62,VALID,0,VALID,77.4255,VALID,164.811,VALID,28.008,VALID,313,VALID,0.362891,
2012-07-19, 10:09:04,VALID,1005.62,VALID,0,VALID,77.9366,VALID,163.67,VALID,28.008,VALID,336,VALID,0.705859,
2012-07-19, 10:10:04,VALID,1005.61,VALID,0,VALID,78.1884,VALID,162.61,VALID,27.93,VALID,8,VALID,0.579297,
2012-07-19, 10:11:04,VALID,1005.59,VALID,0,VALID,77.3874,VALID,161.143,VALID,27.8716,VALID,6,VALID,0.469922,
2012-07-19, 10:12:04,VALID,1005.57,VALID,0,VALID,79.3709,VALID,159.431,VALID,27.8521,VALID,327,VALID,0.492578,
2012-07-19, 10:13:04,VALID,1005.53,VALID,0,VALID,79.2336,VALID,157.638,VALID,27.8521,VALID,351,VALID,0.869531,
2012-07-19, 10:14:04,VALID,1005.55,VALID,0,VALID,79.5235,VALID,156.171,VALID,27.8131,VALID,352,VALID,0.676953,
2012-07-19, 10:15:04,VALID,1005.54,VALID,0,VALID,79.47,VALID,155.03,VALID,27.7957,VALID,350,VALID,0.278125,
2012-07-19, 10:16:04,VALID,1005.53,VALID,0,VALID,79.6913,VALID,154.133,VALID,27.7741,VALID,339,VALID,0.0789063,
2012-07-19, 10:17:04,VALID,1005.55,VALID,0,VALID,79.9736,VALID,152.992,VALID,27.7936,VALID,318,VALID,0.0816406,
2012-07-19, 10:18:04,VALID,1005.51,VALID,0,VALID,79.5997,VALID,151.77,VALID,27.8326,VALID,318,VALID,0,
2012-07-19, 10:19:04,VALID,1005.52,VALID,0,VALID,79.5387,VALID,150.547,VALID,27.8716,VALID,313,VALID,0,
2012-07-19, 10:20:04,VALID,1005.53,VALID,0,VALID,78.9971,VALID,148.917,VALID,27.8737,VALID,356,VALID,0.614453,
2012-07-19, 10:21:04,VALID,1005.52,VALID,0,VALID,78.1503,VALID,147.45,VALID,27.8326,VALID,6,VALID,0.775,
2012-07-19, 10:22:04,VALID,1005.54,VALID,0,VALID,78.9818,VALID,145.819,VALID,27.8152,VALID,356,VALID,0.966797,
2012-07-19, 10:23:04,VALID,1005.5,VALID,0,VALID,79.2336,VALID,144.108,VALID,27.7762,VALID,355,VALID,1.14219,
2012-07-19, 10:24:04,VALID,1005.54,VALID,0,VALID,80.6449,VALID,142.722,VALID,27.6962,VALID,354,VALID,0.470703,
2012-07-19, 10:25:04,VALID,1005.54,VALID,0,VALID,81.3696,VALID,141.826,VALID,27.6962,VALID,359,VALID,0.442969,
2012-07-19, 10:26:04,VALID,1005.55,VALID,0,VALID,80.8051,VALID,141.418,VALID,27.6572,VALID,6,VALID,0.383594,
2012-07-19, 10:27:04,VALID,1005.56,VALID,0,VALID,81.4002,VALID,141.01,VALID,27.6572,VALID,357,VALID,0.191797,
2012-07-19, 10:28:04,VALID,1005.54,VALID,0,VALID,81.2094,VALID,141.255,VALID,27.6983,VALID,356,VALID,0.466406,
2012-07-19, 10:29:04,VALID,1005.53,VALID,0,VALID,80.7288,VALID,141.989,VALID,27.6767,VALID,351,VALID,0.371094,
2012-07-19, 10:30:04,VALID,1005.51,VALID,0,VALID,80.7975,VALID,142.967,VALID,27.6767,VALID,327,VALID,0.296875,
2012-07-19, 10:31:04,VALID,1005.52,VALID,0,VALID,81.4612,VALID,144.352,VALID,27.6572,VALID,357,VALID,0.603516,
2012-07-19, 10:32:04,VALID,1005.49,VALID,0,VALID,81.0797,VALID,145.982,VALID,27.6767,VALID,357,VALID,0.447656,
2012-07-19, 10:33:04,VALID,1005.51,VALID,0,VALID,80.7822,VALID,147.857,VALID,27.6572,VALID,330,VALID,0.569922,
2012-07-19, 10:34:04,VALID,1005.47,VALID,0,VALID,80.9119,VALID,149.65,VALID,27.6572,VALID,312,VALID,0.177734,
2012-07-19, 10:35:04,VALID,1005.47,VALID,0,VALID,80.416,VALID,151.688,VALID,27.6767,VALID,2,VALID,0.6875,
2012-07-19, 10:36:04,VALID,1005.47,VALID,0,VALID,81.5222,VALID,153.644,VALID,27.6356,VALID,357,VALID,0.393359,
2012-07-19, 10:37:04,VALID,1005.45,VALID,0,VALID,80.7822,VALID,155.193,VALID,27.6593,VALID,354,VALID,0.716406,
2012-07-19, 10:38:04,VALID,1005.42,VALID,0,VALID,80.8432,VALID,156.579,VALID,27.5987,VALID,333,VALID,0.479297,
2012-07-19, 10:39:04,VALID,1005.41,VALID,0,VALID,81.8884,VALID,157.72,VALID,27.5987,VALID,8,VALID,0.611328,
2012-07-19, 10:40:04,VALID,1005.4,VALID,0,VALID,81.3696,VALID,158.779,VALID,27.5987,VALID,7,VALID,0.549609,
2012-07-19, 10:41:04,VALID,1005.43,VALID,0,VALID,82.2241,VALID,160.41,VALID,27.5987,VALID,7,VALID,0,
2012-07-19, 10:42:04,VALID,1005.42,VALID,0,VALID,82.3156,VALID,162.529,VALID,27.6161,VALID,7,VALID,0.303906,
2012-07-19, 10:43:04,VALID,1005.37,VALID,0,VALID,81.9723,VALID,165.137,VALID,27.6767,VALID,7,VALID,0.259766,
2012-07-19, 10:44:04,VALID,1005.37,VALID,0,VALID,81.4841,VALID,168.397,VALID,27.6962,VALID,6,VALID,0.116797,
2012-07-19, 10:45:04,VALID,1005.38,VALID,0,VALID,82.1402,VALID,172.065,VALID,27.7741,VALID,259,VALID,0.192188,
2012-07-19, 10:46:04,VALID,1005.36,VALID,0,VALID,81.1179,VALID,175.815,VALID,27.8326,VALID,260,VALID,0.230859,
2012-07-19, 10:47:04,VALID,1005.34,VALID,0,VALID,80.7364,VALID,179.32,VALID,27.8716,VALID,289,VALID,0.30625,
2012-07-19, 10:48:04,VALID,1005.34,VALID,0,VALID,79.0276,VALID,183.069,VALID,27.9105,VALID,280,VALID,1.11914,
2012-07-19, 10:49:04,VALID,1005.35,VALID,0,VALID,80.2406,VALID,186.655,VALID,27.9321,VALID,349,VALID,0.115625,
2012-07-19, 10:50:04,VALID,1005.35,VALID,0,VALID,80.149,VALID,190.405,VALID,27.969,VALID,350,VALID,0.0292969,
2012-07-19, 10:51:04,VALID,1005.31,VALID,0,VALID,80.2863,VALID,194.399,VALID,28.008,VALID,350,VALID,0.233203,
2012-07-19, 10:52:04,VALID,1005.28,VALID,0,VALID,79.0733,VALID,198.719,VALID,28.047,VALID,341,VALID,1.0043,
2012-07-19, 10:53:04,VALID,1005.24,VALID,0,VALID,79.6074,VALID,203.283,VALID,28.0275,VALID,341,VALID,0.427734,
2012-07-19, 10:54:04,VALID,1005.25,VALID,0,VALID,80.4923,VALID,208.418,VALID,28.0665,VALID,291,VALID,0.218359,
2012-07-19, 10:55:04,VALID,1005.21,VALID,0,VALID,79.2336,VALID,213.961,VALID,28.0859,VALID,278,VALID,0.927344,
2012-07-19, 10:56:04,VALID,1005.22,VALID,0,VALID,79.1115,VALID,220.156,VALID,28.0859,VALID,285,VALID,1.3457,
2012-07-19, 10:57:04,VALID,1005.19,VALID,0,VALID,79.0886,VALID,226.921,VALID,28.1271,VALID,295,VALID,0.492578,
2012-07-19, 10:58:04,VALID,1005.2,VALID,0,VALID,79.7599,VALID,234.501,VALID,28.1444,VALID,314,VALID,0.280859,
2012-07-19, 10:59:04,VALID,1005.14,VALID,0,VALID,78.0816,VALID,242.571,VALID,28.1639,VALID,307,VALID,0.605078,
2012-07-19, 11:00:04,VALID,1005.13,VALID,0,VALID,78.7682,VALID,250.232,VALID,28.1444,VALID,270,VALID,0.95,
2012-07-19, 11:01:04,VALID,1005.11,VALID,0,VALID,78.2799,VALID,257.731,VALID,28.1249,VALID,285,VALID,1.48203,
2012-07-19, 11:02:04,VALID,1005.08,VALID,0,VALID,78.6156,VALID,263.681,VALID,28.0665,VALID,281,VALID,1.63242,